AUL101 ULAA-ULLI

Flight info

Callsign AUL101
Flight time 1h 12m
Altitude 34000
Route OBIR3K OBIRA M58 OSNAN DCT PRIBI DCT BEPOL BEPO1V
Aircraft A320/M-SDE3FGHIRWY/LB1

Departure

Time 2026-04-23 18:31
Airport Talagi Airport (ULAA)

Arrival

Time 2026-04-23 19:43
Airport Pulkovo Airport (ULLI)
Time Latitude Longitude Altitude Speed Heading
2026-04-23 18:18 64.59746 40.71732 70 ft 0 kts 186°
2026-04-23 18:25 64.59744 40.71731 70 ft 0 kts 186°
2026-04-23 18:25 64.59734 40.71727 70 ft 1 kts 196°
2026-04-23 18:25 64.59719 40.71706 70 ft 2 kts 225°
2026-04-23 18:25 64.59708 40.71634 70 ft 8 kts 273°
2026-04-23 18:26 64.59715 40.71457 70 ft 11 kts 276°
2026-04-23 18:26 64.59734 40.71276 70 ft 9 kts 327°
2026-04-23 18:26 64.59802 40.71272 70 ft 9 kts
2026-04-23 18:26 64.59826 40.71400 71 ft 10 kts 94°
2026-04-23 18:27 64.59818 40.71584 70 ft 13 kts 96°
2026-04-23 18:27 64.59807 40.71830 70 ft 17 kts 96°
2026-04-23 18:27 64.59792 40.72139 70 ft 19 kts 99°
2026-04-23 18:27 64.59776 40.72445 70 ft 18 kts 96°
2026-04-23 18:28 64.59762 40.72734 70 ft 18 kts 97°
2026-04-23 18:28 64.59748 40.73024 70 ft 17 kts 96°
2026-04-23 18:28 64.59735 40.73311 70 ft 17 kts 97°
2026-04-23 18:28 64.59720 40.73591 70 ft 17 kts 102°
2026-04-23 18:29 64.59695 40.73864 70 ft 17 kts 94°
2026-04-23 18:29 64.59690 40.74127 70 ft 10 kts 63°
2026-04-23 18:29 64.59755 40.74181 70 ft 7 kts
2026-04-23 18:29 64.59783 40.74187 70 ft 2 kts
2026-04-23 18:30 64.59805 40.74193 70 ft 3 kts
2026-04-23 18:30 64.59861 40.74206 70 ft 12 kts
2026-04-23 18:30 64.59909 40.74077 70 ft 12 kts 277°
2026-04-23 18:30 64.59924 40.73794 70 ft 39 kts 278°
2026-04-23 18:31 64.59982 40.72609 71 ft 105 kts 276°
2026-04-23 18:31 64.60089 40.70449 106 ft 154 kts 278°
2026-04-23 18:31 64.60201 40.68200 834 ft 138 kts 277°
2026-04-23 18:31 64.60301 40.65838 1195 ft 154 kts 277°
2026-04-23 18:32 64.60413 40.63313 1719 ft 160 kts 277°
2026-04-23 18:32 64.60538 40.60684 2162 ft 171 kts 277°
2026-04-23 18:32 64.60677 40.57811 2507 ft 187 kts 277°
2026-04-23 18:32 64.60833 40.54678 2881 ft 205 kts 277°
2026-04-23 18:33 64.60891 40.51235 3230 ft 228 kts 259°
2026-04-23 18:33 64.60072 40.47896 3635 ft 251 kts 222°
2026-04-23 18:33 64.58604 40.45612 4335 ft 261 kts 211°
2026-04-23 18:33 64.57015 40.43559 5176 ft 264 kts 211°
2026-04-23 18:34 64.55432 40.41455 5997 ft 267 kts 212°
2026-04-23 18:34 64.53848 40.39239 6812 ft 270 kts 213°
2026-04-23 18:34 64.52264 40.36941 7612 ft 273 kts 214°
2026-04-23 18:34 64.50663 40.34560 8400 ft 276 kts 214°
2026-04-23 18:35 64.49061 40.32135 9167 ft 279 kts 214°
2026-04-23 18:35 64.47439 40.29659 9909 ft 283 kts 214°
2026-04-23 18:35 64.45764 40.27095 10359 ft 298 kts 214°
2026-04-23 18:35 64.43983 40.24366 10692 ft 316 kts 214°
2026-04-23 18:36 64.42110 40.21502 11009 ft 333 kts 214°
2026-04-23 18:36 64.40166 40.18534 11521 ft 342 kts 214°
2026-04-23 18:36 64.38182 40.15512 12233 ft 345 kts 214°
2026-04-23 18:36 64.36169 40.12452 12924 ft 348 kts 214°
2026-04-23 18:37 64.34158 40.09399 13575 ft 351 kts 214°
2026-04-23 18:37 64.32100 40.06278 14222 ft 355 kts 214°
2026-04-23 18:37 64.30033 40.03148 14853 ft 358 kts 214°
2026-04-23 18:37 64.27966 40.00023 15464 ft 362 kts 215°
2026-04-23 18:38 64.25851 39.96830 16069 ft 365 kts 215°
2026-04-23 18:38 64.23737 39.93644 16655 ft 369 kts 215°
2026-04-23 18:38 64.21597 39.90424 17228 ft 372 kts 215°
2026-04-23 18:38 64.19423 39.87159 17792 ft 375 kts 215°
2026-04-23 18:39 64.17226 39.83867 18343 ft 379 kts 215°
2026-04-23 18:39 64.15017 39.80561 18877 ft 382 kts 215°
2026-04-23 18:39 64.12785 39.77232 19398 ft 386 kts 215°
2026-04-23 18:39 64.10558 39.73913 19906 ft 389 kts 215°
2026-04-23 18:40 64.08270 39.70509 20414 ft 392 kts 215°
2026-04-23 18:40 64.06000 39.67140 20899 ft 395 kts 215°
2026-04-23 18:40 64.03708 39.63741 21380 ft 398 kts 216°
2026-04-23 18:40 64.01382 39.60296 21847 ft 401 kts 216°
2026-04-23 18:41 63.99032 39.56822 22307 ft 405 kts 216°
2026-04-23 18:41 63.96667 39.53334 22748 ft 408 kts 216°
2026-04-23 18:41 63.94302 39.49854 23179 ft 411 kts 216°
2026-04-23 18:41 63.91877 39.46291 23362 ft 421 kts 216°
2026-04-23 18:42 63.89393 39.42651 23532 ft 430 kts 216°
2026-04-23 18:42 63.86846 39.38948 23692 ft 438 kts 215°
2026-04-23 18:42 63.84264 39.35211 23843 ft 446 kts 215°
2026-04-23 18:42 63.81647 39.31413 24000 ft 453 kts 214°
2026-04-23 18:43 63.78973 39.27532 24153 ft 460 kts 214°
2026-04-23 18:43 63.76248 39.23585 24290 ft 466 kts 214°
2026-04-23 18:43 63.73549 39.19684 24413 ft 471 kts 214°
2026-04-23 18:43 63.70753 39.15651 24533 ft 476 kts 214°
2026-04-23 18:44 63.67960 39.11632 24638 ft 480 kts 214°
2026-04-23 18:44 63.65160 39.07613 24766 ft 483 kts 214°
2026-04-23 18:44 63.62309 39.03536 25010 ft 483 kts 214°
2026-04-23 18:44 63.59504 38.99535 25328 ft 480 kts 214°
2026-04-23 18:45 63.56698 38.95542 25657 ft 478 kts 214°
2026-04-23 18:45 63.53886 38.91550 25957 ft 476 kts 214°
2026-04-23 18:45 63.51108 38.87614 26235 ft 475 kts 214°
2026-04-23 18:45 63.48301 38.83649 26510 ft 474 kts 214°
2026-04-23 18:46 63.45519 38.79729 26770 ft 473 kts 214°
2026-04-23 18:46 63.42750 38.75833 27002 ft 473 kts 214°
2026-04-23 18:46 63.39977 38.71941 27231 ft 473 kts 214°
2026-04-23 18:46 63.37191 38.68043 27484 ft 472 kts 214°
2026-04-23 18:47 63.34411 38.64159 27730 ft 472 kts 214°
2026-04-23 18:47 63.31646 38.60306 27972 ft 472 kts 214°
2026-04-23 18:47 63.28873 38.56451 28219 ft 471 kts 214°
2026-04-23 18:47 63.26103 38.52608 28460 ft 471 kts 214°
2026-04-23 18:48 63.23340 38.48784 28697 ft 470 kts 214°
2026-04-23 18:48 63.20578 38.44973 28933 ft 470 kts 214°
2026-04-23 18:48 63.17828 38.41183 29173 ft 469 kts 215°
2026-04-23 18:48 63.15050 38.37361 29394 ft 470 kts 214°
2026-04-23 18:49 63.12283 38.33563 29613 ft 469 kts 214°
2026-04-23 18:49 63.09521 38.29771 29846 ft 469 kts 214°
2026-04-23 18:49 63.06759 38.25986 30081 ft 468 kts 214°
2026-04-23 18:49 63.04005 38.22224 30319 ft 468 kts 214°
2026-04-23 18:50 63.02163 38.19718 30475 ft 468 kts 214°
2026-04-23 18:50 62.98492 38.14730 30773 ft 467 kts 214°
2026-04-23 18:50 62.95755 38.11024 30981 ft 467 kts 214°
2026-04-23 18:50 62.92991 38.07293 31193 ft 467 kts 214°
2026-04-23 18:51 62.90221 38.03561 31413 ft 466 kts 214°
2026-04-23 18:51 62.87491 37.99902 31624 ft 466 kts 214°
2026-04-23 18:51 62.84729 37.96224 31813 ft 466 kts 214°
2026-04-23 18:51 62.81970 37.92549 31996 ft 466 kts 214°
2026-04-23 18:52 62.79202 37.88868 32188 ft 465 kts 214°
2026-04-23 18:52 62.76440 37.85197 32379 ft 465 kts 214°
2026-04-23 18:52 62.73679 37.81531 32552 ft 465 kts 214°
2026-04-23 18:52 62.70926 37.77884 32734 ft 464 kts 214°
2026-04-23 18:53 62.68209 37.74287 32910 ft 464 kts 214°
2026-04-23 18:53 62.65454 37.70648 33080 ft 463 kts 214°
2026-04-23 18:53 62.62700 37.67021 33216 ft 464 kts 214°
2026-04-23 18:53 62.59942 37.63393 33353 ft 464 kts 214°
2026-04-23 18:54 62.57209 37.59812 33524 ft 463 kts 214°
2026-04-23 18:54 62.51719 37.52635 33576 ft 463 kts 214°
2026-04-23 18:55 62.46201 37.45443 33581 ft 463 kts 214°
2026-04-23 18:55 62.40690 37.38304 33585 ft 463 kts 214°
2026-04-23 18:56 62.35214 37.31231 33602 ft 463 kts 213°
2026-04-23 18:56 62.29684 37.24102 33631 ft 463 kts 213°
2026-04-23 18:57 62.24117 37.16976 33667 ft 463 kts 213°
2026-04-23 18:57 62.18613 37.09969 33692 ft 460 kts 213°
2026-04-23 18:58 62.13176 37.03037 33695 ft 457 kts 214°
2026-04-23 18:58 62.07834 36.95816 33698 ft 453 kts 216°
2026-04-23 18:59 62.02507 36.88597 33708 ft 452 kts 215°
2026-04-23 18:59 61.97239 36.81536 33715 ft 452 kts 215°
2026-04-23 19:00 61.91932 36.74445 33718 ft 451 kts 216°
2026-04-23 19:00 61.86874 36.66728 33721 ft 449 kts 221°
2026-04-23 19:01 61.82209 36.57968 33719 ft 447 kts 227°
2026-04-23 19:01 61.77970 36.48526 33720 ft 446 kts 230°
2026-04-23 19:02 61.73719 36.38995 33718 ft 446 kts 230°
2026-04-23 19:02 61.69482 36.29523 33721 ft 446 kts 229°
2026-04-23 19:03 61.65243 36.20062 33721 ft 446 kts 229°
2026-04-23 19:03 61.60969 36.10567 33718 ft 446 kts 229°
2026-04-23 19:04 61.56717 36.01175 33717 ft 446 kts 229°
2026-04-23 19:04 61.52466 35.91822 33719 ft 446 kts 229°
2026-04-23 19:05 61.48169 35.82413 33720 ft 446 kts 229°
2026-04-23 19:05 61.43892 35.73083 33720 ft 447 kts 229°
2026-04-23 19:06 61.39621 35.63810 33720 ft 446 kts 229°
2026-04-23 19:06 61.35307 35.54480 33720 ft 446 kts 229°
2026-04-23 19:07 61.31007 35.45221 33721 ft 446 kts 229°
2026-04-23 19:07 61.26722 35.36035 33720 ft 446 kts 229°
2026-04-23 19:08 61.22400 35.26783 33719 ft 446 kts 228°
2026-04-23 19:08 61.18092 35.17603 33720 ft 446 kts 228°
2026-04-23 19:09 61.13756 35.08413 33720 ft 446 kts 228°
2026-04-23 19:09 61.09438 34.99302 33719 ft 446 kts 228°
2026-04-23 19:10 61.05082 34.90152 33720 ft 446 kts 227°
2026-04-23 19:10 61.00740 34.81069 33720 ft 445 kts 227°
2026-04-23 19:11 60.96418 34.72069 33720 ft 445 kts 227°
2026-04-23 19:11 60.92066 34.63045 33720 ft 445 kts 227°
2026-04-23 19:12 60.87703 34.54057 33720 ft 446 kts 227°
2026-04-23 19:12 60.83341 34.45143 33719 ft 445 kts 227°
2026-04-23 19:13 60.78947 34.36171 33719 ft 445 kts 227°
2026-04-23 19:13 60.74575 34.27242 33718 ft 446 kts 227°
2026-04-23 19:14 60.70189 34.18310 33709 ft 447 kts 227°
2026-04-23 19:14 60.65782 34.09384 33701 ft 447 kts 227°
2026-04-23 19:15 60.61363 34.00478 33697 ft 447 kts 227°
2026-04-23 19:15 60.56968 33.91655 33257 ft 448 kts 227°
2026-04-23 19:15 60.54759 33.87236 32705 ft 442 kts 227°
2026-04-23 19:16 60.52602 33.82931 32183 ft 437 kts 227°
2026-04-23 19:16 60.50457 33.78654 31549 ft 434 kts 227°
2026-04-23 19:16 60.48300 33.74364 30918 ft 432 kts 227°
2026-04-23 19:17 60.44040 33.65911 29465 ft 431 kts 227°
2026-04-23 19:17 60.41939 33.61756 28636 ft 425 kts 226°
2026-04-23 19:17 60.39835 33.57607 27883 ft 418 kts 226°
2026-04-23 19:17 60.37768 33.53533 27160 ft 420 kts 226°
2026-04-23 19:18 60.35694 33.49453 26469 ft 420 kts 226°
2026-04-23 19:18 60.33624 33.45391 26011 ft 414 kts 226°
2026-04-23 19:18 60.31570 33.41369 25539 ft 409 kts 226°
2026-04-23 19:18 60.29560 33.37439 25071 ft 405 kts 226°
2026-04-23 19:19 60.25565 33.29638 24130 ft 397 kts 226°
2026-04-23 19:19 60.23585 33.25779 23659 ft 394 kts 226°
2026-04-23 19:20 60.19861 33.17924 22710 ft 386 kts 236°
2026-04-23 19:20 60.18504 33.13369 22242 ft 381 kts 245°
2026-04-23 19:20 60.17559 33.08408 21774 ft 377 kts 253°
2026-04-23 19:20 60.16834 33.03433 21328 ft 374 kts 255°
2026-04-23 19:21 60.16133 32.98442 20888 ft 371 kts 255°
2026-04-23 19:21 60.14741 32.88585 20021 ft 364 kts 255°
2026-04-23 19:21 60.14053 32.83760 19593 ft 361 kts 255°
2026-04-23 19:22 60.13362 32.78930 19156 ft 358 kts 255°
2026-04-23 19:22 60.12673 32.74140 18716 ft 355 kts 255°
2026-04-23 19:22 60.11311 32.64737 17850 ft 349 kts 255°
2026-04-23 19:23 60.10639 32.60125 17425 ft 347 kts 255°
2026-04-23 19:23 60.09961 32.55479 16996 ft 344 kts 255°
2026-04-23 19:23 60.09294 32.50934 16580 ft 341 kts 255°
2026-04-23 19:24 60.07966 32.41918 15754 ft 336 kts 255°
2026-04-23 19:24 60.07299 32.37406 15336 ft 334 kts 255°
2026-04-23 19:24 60.05980 32.28620 14516 ft 329 kts 253°
2026-04-23 19:25 60.04533 32.20042 13690 ft 324 kts 252°
2026-04-23 19:25 60.03097 32.11616 13026 ft 312 kts 252°
2026-04-23 19:26 60.01723 32.03598 12197 ft 296 kts 252°
2026-04-23 19:26 60.01071 31.99808 11756 ft 285 kts 253°
2026-04-23 19:27 59.99828 31.92614 10982 ft 263 kts 253°
2026-04-23 19:27 59.98124 31.82784 10117 ft 239 kts 253°
2026-04-23 19:28 59.97041 31.76552 9924 ft 230 kts 253°
2026-04-23 19:28 59.96040 31.70819 9846 ft 211 kts 254°
2026-04-23 19:29 59.95563 31.68076 9670 ft 213 kts 254°
2026-04-23 19:29 59.94598 31.62541 9200 ft 211 kts 254°
2026-04-23 19:30 59.93634 31.57041 8729 ft 210 kts 254°
2026-04-23 19:30 59.93149 31.54289 8503 ft 210 kts 254°
2026-04-23 19:30 59.92184 31.48824 8074 ft 209 kts 254°
2026-04-23 19:31 59.91694 31.46062 7868 ft 209 kts 254°
2026-04-23 19:31 59.91215 31.43361 7672 ft 209 kts 254°
2026-04-23 19:31 59.90724 31.40625 7523 ft 208 kts 254°
2026-04-23 19:31 59.90233 31.37927 7399 ft 209 kts 254°
2026-04-23 19:32 59.89730 31.35200 7272 ft 209 kts 253°
2026-04-23 19:32 59.89224 31.32525 7149 ft 209 kts 252°
2026-04-23 19:32 59.88710 31.29808 7024 ft 209 kts 252°
2026-04-23 19:32 59.88200 31.27095 6898 ft 208 kts 253°
2026-04-23 19:33 59.87697 31.24418 6775 ft 208 kts 253°
2026-04-23 19:33 59.87188 31.21707 6649 ft 208 kts 253°
2026-04-23 19:33 59.86176 31.16313 6401 ft 208 kts 253°
2026-04-23 19:34 59.85671 31.13625 6278 ft 207 kts 252°
2026-04-23 19:34 59.85164 31.10929 6135 ft 207 kts 252°
2026-04-23 19:34 59.84157 31.05584 5476 ft 209 kts 252°
2026-04-23 19:35 59.83645 31.02877 5094 ft 205 kts 252°
2026-04-23 19:35 59.83149 31.00260 4941 ft 203 kts 252°
2026-04-23 19:35 59.82655 30.97648 4805 ft 204 kts 252°
2026-04-23 19:35 59.82154 30.95001 4550 ft 203 kts 252°
2026-04-23 19:36 59.81655 30.92375 4401 ft 203 kts 252°
2026-04-23 19:36 59.81154 30.89740 4091 ft 205 kts 252°
2026-04-23 19:36 59.80654 30.87113 3744 ft 205 kts 252°
2026-04-23 19:36 59.80145 30.84445 3418 ft 204 kts 252°
2026-04-23 19:37 59.79649 30.81846 3250 ft 204 kts 252°
2026-04-23 19:37 59.79149 30.79230 3184 ft 204 kts 252°
2026-04-23 19:37 59.78648 30.76610 3020 ft 202 kts 252°
2026-04-23 19:37 59.78144 30.73984 2903 ft 202 kts 252°
2026-04-23 19:38 59.77635 30.71324 2777 ft 217 kts 252°
2026-04-23 19:38 59.77085 30.68450 2594 ft 227 kts 252°
2026-04-23 19:38 59.76520 30.65517 2506 ft 227 kts 252°
2026-04-23 19:38 59.75972 30.62693 2489 ft 214 kts 252°
2026-04-23 19:39 59.75453 30.60025 2476 ft 199 kts 252°
2026-04-23 19:39 59.74997 30.57479 2541 ft 187 kts 261°
2026-04-23 19:39 59.74992 30.55080 2507 ft 162 kts 284°
2026-04-23 19:39 59.75290 30.53085 2467 ft 145 kts 291°
2026-04-23 19:40 59.75626 30.51207 2406 ft 145 kts 291°
2026-04-23 19:40 59.75944 30.49318 2232 ft 144 kts 290°
2026-04-23 19:40 59.76235 30.47450 2081 ft 139 kts 289°
2026-04-23 19:40 59.76502 30.45642 1874 ft 136 kts 289°
2026-04-23 19:41 59.76764 30.43833 1683 ft 135 kts 289°
2026-04-23 19:41 59.77018 30.42071 1501 ft 134 kts 289°
2026-04-23 19:41 59.77278 30.40269 1318 ft 134 kts 289°
2026-04-23 19:41 59.77535 30.38499 1142 ft 134 kts 289°
2026-04-23 19:42 59.77793 30.36735 969 ft 133 kts 289°
2026-04-23 19:42 59.78050 30.34976 796 ft 133 kts 288°
2026-04-23 19:42 59.78308 30.33213 620 ft 133 kts 288°
2026-04-23 19:42 59.78566 30.31457 443 ft 132 kts 288°
2026-04-23 19:43 59.78827 30.29687 264 ft 131 kts 288°
2026-04-23 19:43 59.79082 30.27960 93 ft 130 kts 288°
2026-04-23 19:43 59.79303 30.26490 87 ft 87 kts 289°
2026-04-23 19:43 59.79424 30.25656 87 ft 39 kts 287°
2026-04-23 19:44 59.79502 30.25163 87 ft 35 kts 287°
2026-04-23 19:44 59.79567 30.24724 87 ft 31 kts 287°
2026-04-23 19:44 59.79624 30.24322 87 ft 29 kts 284°
2026-04-23 19:44 59.79681 30.23947 87 ft 27 kts 287°
2026-04-23 19:45 59.79737 30.23596 87 ft 26 kts 288°
2026-04-23 19:45 59.79795 30.23298 87 ft 18 kts 297°
2026-04-23 19:45 59.79872 30.23114 87 ft 13 kts 315°
2026-04-23 19:45 59.79919 30.23025 87 ft 0 kts 325°